<?xml version="1.0" encoding="UTF-8" standalone="no" ?>
<gpx xmlns="http://www.topografix.com/GPX/1/1" xmlns:xsi="http://www.w3.org/2001/XMLSchema-instance" xsi:schemaLocation="http://www.topografix.com/GPX/1/1 http://www.topografix.com/GPX/1/1/gpx.xsd" version="1.1" creator="VisuGPX - https://www.visugpx.com">
  <metadata>
    <name>tour de bretagne</name>
    <desc><![CDATA[tracé 2008]]></desc>
  </metadata>
  <trk>
    <name><![CDATA[fusion]]></name>
    <trkseg>
      <trkpt lat="48.63147" lon="-2.44033">
        <ele>-1000</ele>
        <time>2007-05-14T14:08:43Z</time>
      </trkpt>
      <trkpt lat="48.63109" lon="-2.44305">
        <ele>-1000</ele>
        <time>2007-05-14T14:08:43Z</time>
      </trkpt>
      <trkpt lat="48.63083" lon="-2.44528">
        <ele>-1000</ele>
        <time>2007-05-14T14:08:43Z</time>
      </trkpt>
      <trkpt lat="48.6313" lon="-2.44534">
        <ele>-1000</ele>
        <time>2007-05-14T14:08:43Z</time>
      </trkpt>
      <trkpt lat="48.63204" lon="-2.44489">
        <ele>-1000</ele>
        <time>2007-05-14T14:08:43Z</time>
      </trkpt>
      <trkpt lat="48.63322" lon="-2.44561">
        <ele>-1000</ele>
        <time>2007-05-14T14:08:43Z</time>
      </trkpt>
      <trkpt lat="48.63408" lon="-2.44664">
        <ele>-1000</ele>
        <time>2007-05-14T14:08:43Z</time>
      </trkpt>
      <trkpt lat="48.63492" lon="-2.44654">
        <ele>-1000</ele>
        <time>2007-05-14T14:08:43Z</time>
      </trkpt>
      <trkpt lat="48.63517" lon="-2.44632">
        <ele>-1000</ele>
        <time>2007-05-14T14:08:43Z</time>
      </trkpt>
      <trkpt lat="48.63527" lon="-2.44568">
        <ele>-1000</ele>
        <time>2007-05-14T14:08:43Z</time>
      </trkpt>
      <trkpt lat="48.63552" lon="-2.44548">
        <ele>-1000</ele>
        <time>2007-05-14T14:08:43Z</time>
      </trkpt>
      <trkpt lat="48.63672" lon="-2.44597">
        <ele>-1000</ele>
        <time>2007-05-14T14:08:43Z</time>
      </trkpt>
      <trkpt lat="48.63797" lon="-2.44626">
        <ele>-1000</ele>
        <time>2007-05-14T14:08:43Z</time>
      </trkpt>
      <trkpt lat="48.63802" lon="-2.44526">
        <ele>-1000</ele>
        <time>2007-05-14T14:08:43Z</time>
      </trkpt>
      <trkpt lat="48.64211" lon="-2.44546">
        <ele>-1000</ele>
        <time>2007-05-14T14:08:43Z</time>
      </trkpt>
      <trkpt lat="48.64231" lon="-2.43999">
        <ele>-1000</ele>
        <time>2007-05-14T14:08:43Z</time>
      </trkpt>
      <trkpt lat="48.64377" lon="-2.43987">
        <ele>-1000</ele>
        <time>2007-05-14T14:08:43Z</time>
      </trkpt>
      <trkpt lat="48.64433" lon="-2.4395">
        <ele>-1000</ele>
        <time>2007-05-14T14:08:43Z</time>
      </trkpt>
      <trkpt lat="48.64483" lon="-2.43941">
        <ele>-1000</ele>
        <time>2007-05-14T14:08:43Z</time>
      </trkpt>
      <trkpt lat="48.64692" lon="-2.43968">
        <ele>-1000</ele>
        <time>2007-05-14T14:08:43Z</time>
      </trkpt>
      <trkpt lat="48.64726" lon="-2.44">
        <ele>-1000</ele>
        <time>2007-05-14T14:08:43Z</time>
      </trkpt>
      <trkpt lat="48.64749" lon="-2.43981">
        <ele>-1000</ele>
        <time>2007-05-14T14:08:43Z</time>
      </trkpt>
      <trkpt lat="48.64754" lon="-2.4401">
        <ele>-1000</ele>
        <time>2007-05-14T14:08:43Z</time>
      </trkpt>
      <trkpt lat="48.64802" lon="-2.44065">
        <ele>-1000</ele>
        <time>2007-05-14T14:08:43Z</time>
      </trkpt>
      <trkpt lat="48.64889" lon="-2.43979">
        <ele>-1000</ele>
        <time>2007-05-14T14:08:43Z</time>
      </trkpt>
      <trkpt lat="48.64916" lon="-2.43938">
        <ele>-1000</ele>
        <time>2007-05-14T14:08:43Z</time>
      </trkpt>
      <trkpt lat="48.64946" lon="-2.43933">
        <ele>-1000</ele>
        <time>2007-05-14T14:08:43Z</time>
      </trkpt>
      <trkpt lat="48.64965" lon="-2.43909">
        <ele>-1000</ele>
        <time>2007-05-14T14:08:43Z</time>
      </trkpt>
      <trkpt lat="48.64968" lon="-2.43866">
        <ele>-1000</ele>
        <time>2007-05-14T14:08:43Z</time>
      </trkpt>
      <trkpt lat="48.64953" lon="-2.43818">
        <ele>-1000</ele>
        <time>2007-05-14T14:08:43Z</time>
      </trkpt>
      <trkpt lat="48.64948" lon="-2.43781">
        <ele>-1000</ele>
        <time>2007-05-14T14:08:43Z</time>
      </trkpt>
      <trkpt lat="48.64951" lon="-2.4372">
        <ele>-1000</ele>
        <time>2007-05-14T14:08:43Z</time>
      </trkpt>
      <trkpt lat="48.64967" lon="-2.43654">
        <ele>-1000</ele>
        <time>2007-05-14T14:08:43Z</time>
      </trkpt>
      <trkpt lat="48.64935" lon="-2.4349">
        <ele>-1000</ele>
        <time>2007-05-14T14:08:43Z</time>
      </trkpt>
      <trkpt lat="48.64916" lon="-2.43441">
        <ele>-1000</ele>
        <time>2007-05-14T14:08:43Z</time>
      </trkpt>
      <trkpt lat="48.64888" lon="-2.43398">
        <ele>-1000</ele>
        <time>2007-05-14T14:08:43Z</time>
      </trkpt>
      <trkpt lat="48.64848" lon="-2.43361">
        <ele>-1000</ele>
        <time>2007-05-14T14:08:43Z</time>
      </trkpt>
      <trkpt lat="48.64797" lon="-2.43347">
        <ele>-1000</ele>
        <time>2007-05-14T14:08:43Z</time>
      </trkpt>
      <trkpt lat="48.64727" lon="-2.43353">
        <ele>-1000</ele>
        <time>2007-05-14T14:08:43Z</time>
      </trkpt>
      <trkpt lat="48.64668" lon="-2.43413">
        <ele>-1000</ele>
        <time>2007-05-14T14:08:43Z</time>
      </trkpt>
      <trkpt lat="48.64621" lon="-2.43434">
        <ele>-1000</ele>
        <time>2007-05-14T14:08:43Z</time>
      </trkpt>
      <trkpt lat="48.6458" lon="-2.43441">
        <ele>-1000</ele>
        <time>2007-05-14T14:08:43Z</time>
      </trkpt>
      <trkpt lat="48.64602" lon="-2.43385">
        <ele>-1000</ele>
        <time>2007-05-14T14:08:43Z</time>
      </trkpt>
      <trkpt lat="48.64609" lon="-2.43281">
        <ele>-1000</ele>
        <time>2007-05-14T14:08:43Z</time>
      </trkpt>
      <trkpt lat="48.64661" lon="-2.43271">
        <ele>-1000</ele>
        <time>2007-05-14T14:08:43Z</time>
      </trkpt>
      <trkpt lat="48.64694" lon="-2.43233">
        <ele>-1000</ele>
        <time>2007-05-14T14:08:43Z</time>
      </trkpt>
      <trkpt lat="48.64758" lon="-2.43212">
        <ele>-1000</ele>
        <time>2007-05-14T14:08:43Z</time>
      </trkpt>
      <trkpt lat="48.64791" lon="-2.43186">
        <ele>-1000</ele>
        <time>2007-05-14T14:08:43Z</time>
      </trkpt>
      <trkpt lat="48.64793" lon="-2.43151">
        <ele>-1000</ele>
        <time>2007-05-14T14:08:43Z</time>
      </trkpt>
      <trkpt lat="48.64777" lon="-2.43141">
        <ele>-1000</ele>
        <time>2007-05-14T14:08:43Z</time>
      </trkpt>
      <trkpt lat="48.64796" lon="-2.42981">
        <ele>-1000</ele>
        <time>2007-05-14T14:08:43Z</time>
      </trkpt>
      <trkpt lat="48.64793" lon="-2.42958">
        <ele>-1000</ele>
        <time>2007-05-14T14:08:43Z</time>
      </trkpt>
      <trkpt lat="48.64816" lon="-2.42824">
        <ele>-1000</ele>
        <time>2007-05-14T14:08:43Z</time>
      </trkpt>
      <trkpt lat="48.64784" lon="-2.42746">
        <ele>-1000</ele>
        <time>2007-05-14T14:08:43Z</time>
      </trkpt>
      <trkpt lat="48.64629" lon="-2.42163">
        <ele>-1000</ele>
        <time>2007-05-14T14:08:43Z</time>
      </trkpt>
      <trkpt lat="48.64593" lon="-2.42154">
        <ele>-1000</ele>
        <time>2007-05-14T14:08:43Z</time>
      </trkpt>
      <trkpt lat="48.64554" lon="-2.42187">
        <ele>-1000</ele>
        <time>2007-05-14T14:08:43Z</time>
      </trkpt>
      <trkpt lat="48.64525" lon="-2.42227">
        <ele>-1000</ele>
        <time>2007-05-14T14:08:43Z</time>
      </trkpt>
      <trkpt lat="48.64397" lon="-2.42253">
        <ele>-1000</ele>
        <time>2007-05-14T14:08:43Z</time>
      </trkpt>
      <trkpt lat="48.64367" lon="-2.42268">
        <ele>-1000</ele>
        <time>2007-05-14T14:08:43Z</time>
      </trkpt>
      <trkpt lat="48.64236" lon="-2.42393">
        <ele>-1000</ele>
        <time>2007-05-14T14:08:43Z</time>
      </trkpt>
      <trkpt lat="48.64089" lon="-2.42485">
        <ele>-1000</ele>
        <time>2007-05-14T14:08:43Z</time>
      </trkpt>
      <trkpt lat="48.64068" lon="-2.42497">
        <ele>-1000</ele>
        <time>2007-05-14T14:08:43Z</time>
      </trkpt>
      <trkpt lat="48.63941" lon="-2.42618">
        <ele>-1000</ele>
        <time>2007-05-14T14:08:43Z</time>
      </trkpt>
      <trkpt lat="48.63891" lon="-2.42638">
        <ele>-1000</ele>
        <time>2007-05-14T14:08:43Z</time>
      </trkpt>
      <trkpt lat="48.63869" lon="-2.42689">
        <ele>-1000</ele>
        <time>2007-05-14T14:08:43Z</time>
      </trkpt>
      <trkpt lat="48.63825" lon="-2.4274">
        <ele>-1000</ele>
        <time>2007-05-14T14:08:43Z</time>
      </trkpt>
      <trkpt lat="48.63807" lon="-2.42711">
        <ele>-1000</ele>
        <time>2007-05-14T14:08:43Z</time>
      </trkpt>
      <trkpt lat="48.63747" lon="-2.42686">
        <ele>-1000</ele>
        <time>2007-05-14T14:08:43Z</time>
      </trkpt>
      <trkpt lat="48.63676" lon="-2.42712">
        <ele>-1000</ele>
        <time>2007-05-14T14:08:43Z</time>
      </trkpt>
      <trkpt lat="48.63634" lon="-2.42777">
        <ele>-1000</ele>
        <time>2007-05-14T14:08:43Z</time>
      </trkpt>
      <trkpt lat="48.63594" lon="-2.42787">
        <ele>-1000</ele>
        <time>2007-05-14T14:08:43Z</time>
      </trkpt>
      <trkpt lat="48.63532" lon="-2.42768">
        <ele>-1000</ele>
        <time>2007-05-14T14:08:43Z</time>
      </trkpt>
      <trkpt lat="48.635" lon="-2.42763">
        <ele>-1000</ele>
        <time>2007-05-14T14:08:43Z</time>
      </trkpt>
      <trkpt lat="48.63409" lon="-2.42801">
        <ele>-1000</ele>
        <time>2007-05-14T14:08:43Z</time>
      </trkpt>
      <trkpt lat="48.63359" lon="-2.42783">
        <ele>-1000</ele>
        <time>2007-05-14T14:08:43Z</time>
      </trkpt>
      <trkpt lat="48.63327" lon="-2.42715">
        <ele>-1000</ele>
        <time>2007-05-14T14:08:43Z</time>
      </trkpt>
      <trkpt lat="48.63315" lon="-2.42646">
        <ele>-1000</ele>
        <time>2007-05-14T14:08:43Z</time>
      </trkpt>
      <trkpt lat="48.63259" lon="-2.42557">
        <ele>-1000</ele>
        <time>2007-05-14T14:08:43Z</time>
      </trkpt>
      <trkpt lat="48.63247" lon="-2.42482">
        <ele>-1000</ele>
        <time>2007-05-14T14:08:43Z</time>
      </trkpt>
      <trkpt lat="48.63253" lon="-2.42427">
        <ele>-1000</ele>
        <time>2007-05-14T14:08:43Z</time>
      </trkpt>
      <trkpt lat="48.6334" lon="-2.42249">
        <ele>-1000</ele>
        <time>2007-05-14T14:08:43Z</time>
      </trkpt>
      <trkpt lat="48.63362" lon="-2.4218">
        <ele>-1000</ele>
        <time>2007-05-14T14:08:43Z</time>
      </trkpt>
      <trkpt lat="48.63353" lon="-2.42072">
        <ele>-1000</ele>
        <time>2007-05-14T14:08:43Z</time>
      </trkpt>
      <trkpt lat="48.63637" lon="-2.417">
        <ele>-1000</ele>
        <time>2007-05-14T14:08:43Z</time>
      </trkpt>
      <trkpt lat="48.63575" lon="-2.41586">
        <ele>-1000</ele>
        <time>2007-05-14T14:08:43Z</time>
      </trkpt>
      <trkpt lat="48.63492" lon="-2.41331">
        <ele>-1000</ele>
        <time>2007-05-14T14:08:43Z</time>
      </trkpt>
      <trkpt lat="48.63422" lon="-2.41029">
        <ele>-1000</ele>
        <time>2007-05-14T14:08:43Z</time>
      </trkpt>
      <trkpt lat="48.6349" lon="-2.40965">
        <ele>-1000</ele>
        <time>2007-05-14T14:08:43Z</time>
      </trkpt>
      <trkpt lat="48.63505" lon="-2.40893">
        <ele>-1000</ele>
        <time>2007-05-14T14:08:43Z</time>
      </trkpt>
      <trkpt lat="48.63495" lon="-2.40843">
        <ele>-1000</ele>
        <time>2007-05-14T14:08:43Z</time>
      </trkpt>
      <trkpt lat="48.63475" lon="-2.40798">
        <ele>-1000</ele>
        <time>2007-05-14T14:08:43Z</time>
      </trkpt>
      <trkpt lat="48.63471" lon="-2.40724">
        <ele>-1000</ele>
        <time>2007-05-14T14:08:43Z</time>
      </trkpt>
      <trkpt lat="48.63438" lon="-2.40648">
        <ele>-1000</ele>
        <time>2007-05-14T14:08:43Z</time>
      </trkpt>
      <trkpt lat="48.63403" lon="-2.4062">
        <ele>-1000</ele>
        <time>2007-05-14T14:08:43Z</time>
      </trkpt>
      <trkpt lat="48.63371" lon="-2.40559">
        <ele>-1000</ele>
        <time>2007-05-14T14:08:43Z</time>
      </trkpt>
      <trkpt lat="48.63377" lon="-2.40523">
        <ele>-1000</ele>
        <time>2007-05-14T14:08:43Z</time>
      </trkpt>
      <trkpt lat="48.63411" lon="-2.40509">
        <ele>-1000</ele>
        <time>2007-05-14T14:08:43Z</time>
      </trkpt>
      <trkpt lat="48.63555" lon="-2.40695">
        <ele>-1000</ele>
        <time>2007-05-14T14:08:43Z</time>
      </trkpt>
      <trkpt lat="48.63636" lon="-2.4067">
        <ele>-1000</ele>
        <time>2007-05-14T14:08:43Z</time>
      </trkpt>
      <trkpt lat="48.63648" lon="-2.406">
        <ele>-1000</ele>
        <time>2007-05-14T14:08:43Z</time>
      </trkpt>
      <trkpt lat="48.63637" lon="-2.40514">
        <ele>-1000</ele>
        <time>2007-05-14T14:08:43Z</time>
      </trkpt>
      <trkpt lat="48.63673" lon="-2.40442">
        <ele>-1000</ele>
        <time>2007-05-14T14:08:43Z</time>
      </trkpt>
      <trkpt lat="48.63673" lon="-2.40404">
        <ele>-1000</ele>
        <time>2007-05-14T14:08:43Z</time>
      </trkpt>
      <trkpt lat="48.63644" lon="-2.40263">
        <ele>-1000</ele>
        <time>2007-05-14T14:08:43Z</time>
      </trkpt>
      <trkpt lat="48.63585" lon="-2.40176">
        <ele>-1000</ele>
        <time>2007-05-14T14:08:43Z</time>
      </trkpt>
      <trkpt lat="48.63573" lon="-2.40121">
        <ele>-1000</ele>
        <time>2007-05-14T14:08:43Z</time>
      </trkpt>
      <trkpt lat="48.63588" lon="-2.40083">
        <ele>-1000</ele>
        <time>2007-05-14T14:08:43Z</time>
      </trkpt>
      <trkpt lat="48.63614" lon="-2.4006">
        <ele>-1000</ele>
        <time>2007-05-14T14:08:43Z</time>
      </trkpt>
      <trkpt lat="48.63401" lon="-2.39793">
        <ele>-1000</ele>
        <time>2007-05-14T14:08:43Z</time>
      </trkpt>
      <trkpt lat="48.63494" lon="-2.3968">
        <ele>-1000</ele>
        <time>2007-05-14T14:08:43Z</time>
      </trkpt>
      <trkpt lat="48.63545" lon="-2.39607">
        <ele>-1000</ele>
        <time>2007-05-14T14:08:43Z</time>
      </trkpt>
      <trkpt lat="48.63774" lon="-2.39511">
        <ele>-1000</ele>
        <time>2007-05-14T14:08:43Z</time>
      </trkpt>
      <trkpt lat="48.64012" lon="-2.39435">
        <ele>-1000</ele>
        <time>2007-05-14T14:08:43Z</time>
      </trkpt>
      <trkpt lat="48.6401" lon="-2.39412">
        <ele>-1000</ele>
        <time>2007-05-14T14:08:43Z</time>
      </trkpt>
      <trkpt lat="48.64114" lon="-2.39171">
        <ele>-1000</ele>
        <time>2007-05-14T14:08:43Z</time>
      </trkpt>
      <trkpt lat="48.64221" lon="-2.38973">
        <ele>-1000</ele>
        <time>2007-05-14T14:08:43Z</time>
      </trkpt>
      <trkpt lat="48.64285" lon="-2.38873">
        <ele>-1000</ele>
        <time>2007-05-14T14:08:43Z</time>
      </trkpt>
      <trkpt lat="48.64405" lon="-2.38988">
        <ele>-1000</ele>
        <time>2007-05-14T14:08:43Z</time>
      </trkpt>
      <trkpt lat="48.64426" lon="-2.39023">
        <ele>-1000</ele>
        <time>2007-05-14T14:08:43Z</time>
      </trkpt>
      <trkpt lat="48.64432" lon="-2.3909">
        <ele>-1000</ele>
        <time>2007-05-14T14:08:43Z</time>
      </trkpt>
      <trkpt lat="48.64473" lon="-2.3908">
        <ele>-1000</ele>
        <time>2007-05-14T14:08:43Z</time>
      </trkpt>
      <trkpt lat="48.64568" lon="-2.38942">
        <ele>-1000</ele>
        <time>2007-05-14T14:08:43Z</time>
      </trkpt>
      <trkpt lat="48.64677" lon="-2.38713">
        <ele>-1000</ele>
        <time>2007-05-14T14:08:43Z</time>
      </trkpt>
      <trkpt lat="48.64798" lon="-2.38315">
        <ele>-1000</ele>
        <time>2007-05-14T14:08:43Z</time>
      </trkpt>
      <trkpt lat="48.64829" lon="-2.38137">
        <ele>-1000</ele>
        <time>2007-05-14T14:08:43Z</time>
      </trkpt>
      <trkpt lat="48.64802" lon="-2.38095">
        <ele>-1000</ele>
        <time>2007-05-14T14:08:43Z</time>
      </trkpt>
      <trkpt lat="48.64758" lon="-2.3808">
        <ele>-1000</ele>
        <time>2007-05-14T14:08:43Z</time>
      </trkpt>
      <trkpt lat="48.64749" lon="-2.38105">
        <ele>-1000</ele>
        <time>2007-05-14T14:08:43Z</time>
      </trkpt>
      <trkpt lat="48.64684" lon="-2.38024">
        <ele>-1000</ele>
        <time>2007-05-14T14:08:43Z</time>
      </trkpt>
      <trkpt lat="48.64645" lon="-2.37934">
        <ele>-1000</ele>
        <time>2007-05-14T14:08:43Z</time>
      </trkpt>
      <trkpt lat="48.64547" lon="-2.37793">
        <ele>-1000</ele>
        <time>2007-05-14T14:08:43Z</time>
      </trkpt>
      <trkpt lat="48.64496" lon="-2.37664">
        <ele>-1000</ele>
        <time>2007-05-14T14:08:43Z</time>
      </trkpt>
      <trkpt lat="48.64455" lon="-2.3761">
        <ele>-1000</ele>
        <time>2007-05-14T14:08:43Z</time>
      </trkpt>
      <trkpt lat="48.6442" lon="-2.37601">
        <ele>-1000</ele>
        <time>2007-05-14T14:08:43Z</time>
      </trkpt>
      <trkpt lat="48.64395" lon="-2.37619">
        <ele>-1000</ele>
        <time>2007-05-14T14:08:43Z</time>
      </trkpt>
      <trkpt lat="48.64303" lon="-2.37459">
        <ele>-1000</ele>
        <time>2007-05-14T14:08:43Z</time>
      </trkpt>
      <trkpt lat="48.64571" lon="-2.37249">
        <ele>-1000</ele>
        <time>2007-05-14T14:08:43Z</time>
      </trkpt>
      <trkpt lat="48.64735" lon="-2.37363">
        <ele>-1000</ele>
        <time>2007-05-14T14:08:43Z</time>
      </trkpt>
      <trkpt lat="48.64873" lon="-2.37367">
        <ele>-1000</ele>
        <time>2007-05-14T14:08:43Z</time>
      </trkpt>
      <trkpt lat="48.64916" lon="-2.37325">
        <ele>-1000</ele>
        <time>2007-05-14T14:08:43Z</time>
      </trkpt>
      <trkpt lat="48.64948" lon="-2.37325">
        <ele>-1000</ele>
        <time>2007-05-14T14:08:43Z</time>
      </trkpt>
      <trkpt lat="48.65023" lon="-2.37252">
        <ele>-1000</ele>
        <time>2007-05-14T14:08:43Z</time>
      </trkpt>
      <trkpt lat="48.65065" lon="-2.37227">
        <ele>-1000</ele>
        <time>2007-05-14T14:08:43Z</time>
      </trkpt>
      <trkpt lat="48.65109" lon="-2.37231">
        <ele>-1000</ele>
        <time>2007-05-14T14:08:43Z</time>
      </trkpt>
      <trkpt lat="48.65176" lon="-2.37285">
        <ele>-1000</ele>
        <time>2007-05-14T14:08:43Z</time>
      </trkpt>
      <trkpt lat="48.65225" lon="-2.37334">
        <ele>-1000</ele>
        <time>2007-05-14T14:08:43Z</time>
      </trkpt>
      <trkpt lat="48.65258" lon="-2.37303">
        <ele>-1000</ele>
        <time>2007-05-14T14:08:43Z</time>
      </trkpt>
      <trkpt lat="48.65279" lon="-2.37257">
        <ele>-1000</ele>
        <time>2007-05-14T14:08:43Z</time>
      </trkpt>
      <trkpt lat="48.6518" lon="-2.3714">
        <ele>-1000</ele>
        <time>2007-05-14T14:08:43Z</time>
      </trkpt>
      <trkpt lat="48.6517" lon="-2.37101">
        <ele>-1000</ele>
        <time>2007-05-14T14:08:43Z</time>
      </trkpt>
      <trkpt lat="48.65171" lon="-2.37049">
        <ele>-1000</ele>
        <time>2007-05-14T14:08:43Z</time>
      </trkpt>
      <trkpt lat="48.65149" lon="-2.36933">
        <ele>-1000</ele>
        <time>2007-05-14T14:08:43Z</time>
      </trkpt>
      <trkpt lat="48.65112" lon="-2.36836">
        <ele>-1000</ele>
        <time>2007-05-14T14:08:43Z</time>
      </trkpt>
      <trkpt lat="48.65105" lon="-2.36767">
        <ele>-1000</ele>
        <time>2007-05-14T14:08:43Z</time>
      </trkpt>
      <trkpt lat="48.65074" lon="-2.36678">
        <ele>-1000</ele>
        <time>2007-05-14T14:08:43Z</time>
      </trkpt>
      <trkpt lat="48.65042" lon="-2.36641">
        <ele>-1000</ele>
        <time>2007-05-14T14:08:43Z</time>
      </trkpt>
      <trkpt lat="48.65046" lon="-2.36549">
        <ele>-1000</ele>
        <time>2007-05-14T14:08:43Z</time>
      </trkpt>
      <trkpt lat="48.65039" lon="-2.36541">
        <ele>-1000</ele>
        <time>2007-05-14T14:08:43Z</time>
      </trkpt>
      <trkpt lat="48.65048" lon="-2.3583">
        <ele>-1000</ele>
        <time>2007-05-14T14:08:43Z</time>
      </trkpt>
      <trkpt lat="48.64975" lon="-2.3572">
        <ele>-1000</ele>
        <time>2007-05-14T14:08:43Z</time>
      </trkpt>
      <trkpt lat="48.64933" lon="-2.35684">
        <ele>-1000</ele>
        <time>2007-05-14T14:08:43Z</time>
      </trkpt>
      <trkpt lat="48.64975" lon="-2.35538">
        <ele>-1000</ele>
        <time>2007-05-14T14:08:43Z</time>
      </trkpt>
      <trkpt lat="48.65006" lon="-2.35489">
        <ele>-1000</ele>
        <time>2007-05-14T14:08:43Z</time>
      </trkpt>
      <trkpt lat="48.65037" lon="-2.35467">
        <ele>-1000</ele>
        <time>2007-05-14T14:08:43Z</time>
      </trkpt>
      <trkpt lat="48.65044" lon="-2.35426">
        <ele>-1000</ele>
        <time>2007-05-14T14:08:43Z</time>
      </trkpt>
      <trkpt lat="48.65032" lon="-2.35355">
        <ele>-1000</ele>
        <time>2007-05-14T14:08:43Z</time>
      </trkpt>
      <trkpt lat="48.65017" lon="-2.35226">
        <ele>-1000</ele>
        <time>2007-05-14T14:08:43Z</time>
      </trkpt>
      <trkpt lat="48.65122" lon="-2.35283">
        <ele>-1000</ele>
        <time>2007-05-14T14:08:43Z</time>
      </trkpt>
      <trkpt lat="48.65232" lon="-2.35306">
        <ele>-1000</ele>
        <time>2007-05-14T14:08:43Z</time>
      </trkpt>
      <trkpt lat="48.65303" lon="-2.35307">
        <ele>-1000</ele>
        <time>2007-05-14T14:08:43Z</time>
      </trkpt>
      <trkpt lat="48.65411" lon="-2.35254">
        <ele>-1000</ele>
        <time>2007-05-14T14:08:43Z</time>
      </trkpt>
      <trkpt lat="48.65442" lon="-2.35252">
        <ele>-1000</ele>
        <time>2007-05-14T14:08:43Z</time>
      </trkpt>
      <trkpt lat="48.65518" lon="-2.35167">
        <ele>-1000</ele>
        <time>2007-05-14T14:08:43Z</time>
      </trkpt>
      <trkpt lat="48.65638" lon="-2.35126">
        <ele>-1000</ele>
        <time>2007-05-14T14:08:43Z</time>
      </trkpt>
      <trkpt lat="48.65642" lon="-2.35022">
        <ele>-1000</ele>
        <time>2007-05-14T14:08:43Z</time>
      </trkpt>
      <trkpt lat="48.65665" lon="-2.35018">
        <ele>-1000</ele>
        <time>2007-05-14T14:08:43Z</time>
      </trkpt>
      <trkpt lat="48.65735" lon="-2.34931">
        <ele>-1000</ele>
        <time>2007-05-14T14:08:43Z</time>
      </trkpt>
      <trkpt lat="48.65751" lon="-2.34923">
        <ele>-1000</ele>
        <time>2007-05-14T14:08:43Z</time>
      </trkpt>
      <trkpt lat="48.65835" lon="-2.34812">
        <ele>-1000</ele>
        <time>2007-05-14T14:08:43Z</time>
      </trkpt>
      <trkpt lat="48.65888" lon="-2.34855">
        <ele>-1000</ele>
        <time>2007-05-14T14:08:43Z</time>
      </trkpt>
      <trkpt lat="48.6594" lon="-2.34935">
        <ele>-1000</ele>
        <time>2007-05-14T14:08:43Z</time>
      </trkpt>
      <trkpt lat="48.6596" lon="-2.3491">
        <ele>-1000</ele>
        <time>2007-05-14T14:08:43Z</time>
      </trkpt>
      <trkpt lat="48.66014" lon="-2.34845">
        <ele>-1000</ele>
        <time>2007-05-14T14:08:43Z</time>
      </trkpt>
      <trkpt lat="48.66086" lon="-2.34799">
        <ele>-1000</ele>
        <time>2007-05-14T14:08:43Z</time>
      </trkpt>
      <trkpt lat="48.66127" lon="-2.34875">
        <ele>-1000</ele>
        <time>2007-05-14T14:08:43Z</time>
      </trkpt>
      <trkpt lat="48.66157" lon="-2.34931">
        <ele>-1000</ele>
        <time>2007-05-14T14:08:43Z</time>
      </trkpt>
      <trkpt lat="48.66182" lon="-2.34926">
        <ele>-1000</ele>
        <time>2007-05-14T14:08:43Z</time>
      </trkpt>
      <trkpt lat="48.66231" lon="-2.34855">
        <ele>-1000</ele>
        <time>2007-05-14T14:08:43Z</time>
      </trkpt>
      <trkpt lat="48.66345" lon="-2.34737">
        <ele>-1000</ele>
        <time>2007-05-14T14:08:43Z</time>
      </trkpt>
      <trkpt lat="48.66379" lon="-2.34676">
        <ele>-1000</ele>
        <time>2007-05-14T14:08:43Z</time>
      </trkpt>
      <trkpt lat="48.66386" lon="-2.34506">
        <ele>-1000</ele>
        <time>2007-05-14T14:08:43Z</time>
      </trkpt>
      <trkpt lat="48.66411" lon="-2.34375">
        <ele>-1000</ele>
        <time>2007-05-14T14:08:43Z</time>
      </trkpt>
      <trkpt lat="48.66447" lon="-2.34311">
        <ele>-1000</ele>
        <time>2007-05-14T14:08:43Z</time>
      </trkpt>
      <trkpt lat="48.66605" lon="-2.34198">
        <ele>-1000</ele>
        <time>2007-05-14T14:08:43Z</time>
      </trkpt>
      <trkpt lat="48.66673" lon="-2.34113">
        <ele>-1000</ele>
        <time>2007-05-14T14:08:43Z</time>
      </trkpt>
      <trkpt lat="48.6668" lon="-2.33969">
        <ele>-1000</ele>
        <time>2007-05-14T14:08:43Z</time>
      </trkpt>
      <trkpt lat="48.66696" lon="-2.33867">
        <ele>-1000</ele>
        <time>2007-05-14T14:08:43Z</time>
      </trkpt>
      <trkpt lat="48.66727" lon="-2.33752">
        <ele>-1000</ele>
        <time>2007-05-14T14:08:43Z</time>
      </trkpt>
      <trkpt lat="48.66754" lon="-2.33752">
        <ele>-1000</ele>
        <time>2007-05-14T14:08:43Z</time>
      </trkpt>
      <trkpt lat="48.66776" lon="-2.3376">
        <ele>-1000</ele>
        <time>2007-05-14T14:08:43Z</time>
      </trkpt>
      <trkpt lat="48.66804" lon="-2.33732">
        <ele>-1000</ele>
        <time>2007-05-14T14:08:43Z</time>
      </trkpt>
      <trkpt lat="48.66799" lon="-2.33681">
        <ele>-1000</ele>
        <time>2007-05-14T14:08:43Z</time>
      </trkpt>
      <trkpt lat="48.66819" lon="-2.33633">
        <ele>-1000</ele>
        <time>2007-05-14T14:08:43Z</time>
      </trkpt>
      <trkpt lat="48.66901" lon="-2.33523">
        <ele>-1000</ele>
        <time>2007-05-14T14:08:43Z</time>
      </trkpt>
      <trkpt lat="48.66945" lon="-2.3347">
        <ele>-1000</ele>
        <time>2007-05-14T14:08:43Z</time>
      </trkpt>
      <trkpt lat="48.66968" lon="-2.33416">
        <ele>-1000</ele>
        <time>2007-05-14T14:08:43Z</time>
      </trkpt>
      <trkpt lat="48.6697" lon="-2.33191">
        <ele>-1000</ele>
        <time>2007-05-14T14:08:43Z</time>
      </trkpt>
      <trkpt lat="48.66979" lon="-2.33125">
        <ele>-1000</ele>
        <time>2007-05-14T14:08:43Z</time>
      </trkpt>
      <trkpt lat="48.66961" lon="-2.33069">
        <ele>-1000</ele>
        <time>2007-05-14T14:08:43Z</time>
      </trkpt>
      <trkpt lat="48.66942" lon="-2.33033">
        <ele>-1000</ele>
        <time>2007-05-14T14:08:43Z</time>
      </trkpt>
      <trkpt lat="48.66399" lon="-2.32636">
        <ele>-1000</ele>
        <time>2007-05-14T14:08:43Z</time>
      </trkpt>
      <trkpt lat="48.66409" lon="-2.32573">
        <ele>-1000</ele>
        <time>2007-05-14T14:08:43Z</time>
      </trkpt>
      <trkpt lat="48.66516" lon="-2.32251">
        <ele>-1000</ele>
        <time>2007-05-14T14:08:43Z</time>
      </trkpt>
      <trkpt lat="48.66523" lon="-2.32196">
        <ele>-1000</ele>
        <time>2007-05-14T14:08:43Z</time>
      </trkpt>
      <trkpt lat="48.66547" lon="-2.32111">
        <ele>-1000</ele>
        <time>2007-05-14T14:08:43Z</time>
      </trkpt>
      <trkpt lat="48.6656" lon="-2.31941">
        <ele>-1000</ele>
        <time>2007-05-14T14:08:43Z</time>
      </trkpt>
      <trkpt lat="48.66613" lon="-2.3179">
        <ele>-1000</ele>
        <time>2007-05-14T14:08:43Z</time>
      </trkpt>
      <trkpt lat="48.66615" lon="-2.3176">
        <ele>-1000</ele>
        <time>2007-05-14T14:08:43Z</time>
      </trkpt>
      <trkpt lat="48.66634" lon="-2.3176">
        <ele>-1000</ele>
        <time>2007-05-14T14:08:43Z</time>
      </trkpt>
      <trkpt lat="48.66668" lon="-2.31713">
        <ele>-1000</ele>
        <time>2007-05-14T14:08:43Z</time>
      </trkpt>
      <trkpt lat="48.66693" lon="-2.31624">
        <ele>-1000</ele>
        <time>2007-05-14T14:08:43Z</time>
      </trkpt>
      <trkpt lat="48.66713" lon="-2.31508">
        <ele>-1000</ele>
        <time>2007-05-14T14:08:43Z</time>
      </trkpt>
      <trkpt lat="48.6672" lon="-2.31448">
        <ele>-1000</ele>
        <time>2007-05-14T14:08:43Z</time>
      </trkpt>
      <trkpt lat="48.66706" lon="-2.31416">
        <ele>-1000</ele>
        <time>2007-05-14T14:08:43Z</time>
      </trkpt>
      <trkpt lat="48.66686" lon="-2.3136">
        <ele>-1000</ele>
        <time>2007-05-14T14:08:43Z</time>
      </trkpt>
      <trkpt lat="48.66706" lon="-2.31227">
        <ele>-1000</ele>
        <time>2007-05-14T14:08:43Z</time>
      </trkpt>
      <trkpt lat="48.66637" lon="-2.3117">
        <ele>-1000</ele>
        <time>2007-05-14T14:08:43Z</time>
      </trkpt>
      <trkpt lat="48.66597" lon="-2.31123">
        <ele>-1000</ele>
        <time>2007-05-14T14:08:43Z</time>
      </trkpt>
      <trkpt lat="48.66534" lon="-2.31067">
        <ele>-1000</ele>
        <time>2007-05-14T14:08:43Z</time>
      </trkpt>
      <trkpt lat="48.66484" lon="-2.30984">
        <ele>-1000</ele>
        <time>2007-05-14T14:08:43Z</time>
      </trkpt>
      <trkpt lat="48.66465" lon="-2.30958">
        <ele>-1000</ele>
        <time>2007-05-14T14:08:43Z</time>
      </trkpt>
      <trkpt lat="48.6644" lon="-2.30938">
        <ele>-1000</ele>
        <time>2007-05-14T14:08:43Z</time>
      </trkpt>
      <trkpt lat="48.66351" lon="-2.30925">
        <ele>-1000</ele>
        <time>2007-05-14T14:08:43Z</time>
      </trkpt>
      <trkpt lat="48.66301" lon="-2.30899">
        <ele>-1000</ele>
        <time>2007-05-14T14:08:43Z</time>
      </trkpt>
      <trkpt lat="48.66306" lon="-2.30892">
        <ele>-1000</ele>
        <time>2007-05-14T14:08:43Z</time>
      </trkpt>
      <trkpt lat="48.66233" lon="-2.30945">
        <ele>-1000</ele>
        <time>2007-05-14T14:08:43Z</time>
      </trkpt>
      <trkpt lat="48.66182" lon="-2.3099">
        <ele>-1000</ele>
        <time>2007-05-14T14:08:43Z</time>
      </trkpt>
      <trkpt lat="48.66114" lon="-2.31095">
        <ele>-1000</ele>
        <time>2007-05-14T14:08:43Z</time>
      </trkpt>
      <trkpt lat="48.66065" lon="-2.31134">
        <ele>-1000</ele>
        <time>2007-05-14T14:08:43Z</time>
      </trkpt>
      <trkpt lat="48.66024" lon="-2.31114">
        <ele>-1000</ele>
        <time>2007-05-14T14:08:43Z</time>
      </trkpt>
      <trkpt lat="48.66002" lon="-2.31089">
        <ele>-1000</ele>
        <time>2007-05-14T14:08:43Z</time>
      </trkpt>
      <trkpt lat="48.65978" lon="-2.31073">
        <ele>-1000</ele>
        <time>2007-05-14T14:08:43Z</time>
      </trkpt>
      <trkpt lat="48.65946" lon="-2.31126">
        <ele>-1000</ele>
        <time>2007-05-14T14:08:43Z</time>
      </trkpt>
      <trkpt lat="48.65878" lon="-2.31192">
        <ele>-1000</ele>
        <time>2007-05-14T14:08:43Z</time>
      </trkpt>
      <trkpt lat="48.65861" lon="-2.31242">
        <ele>-1000</ele>
        <time>2007-05-14T14:08:43Z</time>
      </trkpt>
      <trkpt lat="48.65824" lon="-2.31215">
        <ele>-1000</ele>
        <time>2007-05-14T14:08:43Z</time>
      </trkpt>
      <trkpt lat="48.65816" lon="-2.31179">
        <ele>-1000</ele>
        <time>2007-05-14T14:08:43Z</time>
      </trkpt>
      <trkpt lat="48.65721" lon="-2.3108">
        <ele>-1000</ele>
        <time>2007-05-14T14:08:43Z</time>
      </trkpt>
      <trkpt lat="48.65678" lon="-2.31113">
        <ele>-1000</ele>
        <time>2007-05-14T14:08:43Z</time>
      </trkpt>
      <trkpt lat="48.65628" lon="-2.31185">
        <ele>-1000</ele>
        <time>2007-05-14T14:08:43Z</time>
      </trkpt>
      <trkpt lat="48.65585" lon="-2.31148">
        <ele>-1000</ele>
        <time>2007-05-14T14:08:43Z</time>
      </trkpt>
      <trkpt lat="48.65401" lon="-2.31416">
        <ele>-1000</ele>
        <time>2007-05-14T14:08:43Z</time>
      </trkpt>
      <trkpt lat="48.65374" lon="-2.31404">
        <ele>-1000</ele>
        <time>2007-05-14T14:08:43Z</time>
      </trkpt>
      <trkpt lat="48.65368" lon="-2.31484">
        <ele>-1000</ele>
        <time>2007-05-14T14:08:43Z</time>
      </trkpt>
      <trkpt lat="48.65404" lon="-2.31642">
        <ele>-1000</ele>
        <time>2007-05-14T14:08:43Z</time>
      </trkpt>
      <trkpt lat="48.65398" lon="-2.31689">
        <ele>-1000</ele>
        <time>2007-05-14T14:08:43Z</time>
      </trkpt>
      <trkpt lat="48.65371" lon="-2.31741">
        <ele>-1000</ele>
        <time>2007-05-14T14:08:43Z</time>
      </trkpt>
      <trkpt lat="48.65345" lon="-2.31765">
        <ele>-1000</ele>
        <time>2007-05-14T14:08:43Z</time>
      </trkpt>
      <trkpt lat="48.65343" lon="-2.31789">
        <ele>-1000</ele>
        <time>2007-05-14T14:08:43Z</time>
      </trkpt>
      <trkpt lat="48.65309" lon="-2.31778">
        <ele>-1000</ele>
        <time>2007-05-14T14:08:43Z</time>
      </trkpt>
      <trkpt lat="48.6527" lon="-2.31745">
        <ele>-1000</ele>
        <time>2007-05-14T14:08:43Z</time>
      </trkpt>
      <trkpt lat="48.65169" lon="-2.31607">
        <ele>-1000</ele>
        <time>2007-05-14T14:08:43Z</time>
      </trkpt>
      <trkpt lat="48.65124" lon="-2.3166">
        <ele>-1000</ele>
        <time>2007-05-14T14:08:43Z</time>
      </trkpt>
      <trkpt lat="48.65065" lon="-2.31684">
        <ele>-1000</ele>
        <time>2007-05-14T14:08:43Z</time>
      </trkpt>
      <trkpt lat="48.65033" lon="-2.31659">
        <ele>-1000</ele>
        <time>2007-05-14T14:08:43Z</time>
      </trkpt>
      <trkpt lat="48.64996" lon="-2.31657">
        <ele>-1000</ele>
        <time>2007-05-14T14:08:43Z</time>
      </trkpt>
      <trkpt lat="48.6485" lon="-2.31898">
        <ele>-1000</ele>
        <time>2007-05-14T14:08:43Z</time>
      </trkpt>
      <trkpt lat="48.64813" lon="-2.31941">
        <ele>-1000</ele>
        <time>2007-05-14T14:08:43Z</time>
      </trkpt>
      <trkpt lat="48.64715" lon="-2.32016">
        <ele>-1000</ele>
        <time>2007-05-14T14:08:43Z</time>
      </trkpt>
      <trkpt lat="48.64684" lon="-2.32055">
        <ele>-1000</ele>
        <time>2007-05-14T14:08:43Z</time>
      </trkpt>
      <trkpt lat="48.64645" lon="-2.32137">
        <ele>-1000</ele>
        <time>2007-05-14T14:08:43Z</time>
      </trkpt>
      <trkpt lat="48.64576" lon="-2.32234">
        <ele>-1000</ele>
        <time>2007-05-14T14:08:43Z</time>
      </trkpt>
      <trkpt lat="48.64545" lon="-2.32289">
        <ele>-1000</ele>
        <time>2007-05-14T14:08:43Z</time>
      </trkpt>
      <trkpt lat="48.64528" lon="-2.32344">
        <ele>-1000</ele>
        <time>2007-05-14T14:08:43Z</time>
      </trkpt>
      <trkpt lat="48.64488" lon="-2.32288">
        <ele>-1000</ele>
        <time>2007-05-14T14:08:43Z</time>
      </trkpt>
      <trkpt lat="48.64463" lon="-2.32275">
        <ele>-1000</ele>
        <time>2007-05-14T14:08:43Z</time>
      </trkpt>
      <trkpt lat="48.64446" lon="-2.32237">
        <ele>-1000</ele>
        <time>2007-05-14T14:08:43Z</time>
      </trkpt>
      <trkpt lat="48.64403" lon="-2.32122">
        <ele>-1000</ele>
        <time>2007-05-14T14:08:43Z</time>
      </trkpt>
      <trkpt lat="48.64363" lon="-2.32058">
        <ele>-1000</ele>
        <time>2007-05-14T14:08:43Z</time>
      </trkpt>
      <trkpt lat="48.64316" lon="-2.32001">
        <ele>-1000</ele>
        <time>2007-05-14T14:08:43Z</time>
      </trkpt>
      <trkpt lat="48.64166" lon="-2.31864">
        <ele>-1000</ele>
        <time>2007-05-14T14:08:43Z</time>
      </trkpt>
      <trkpt lat="48.64161" lon="-2.31777">
        <ele>-1000</ele>
        <time>2007-05-14T14:08:43Z</time>
      </trkpt>
      <trkpt lat="48.64166" lon="-2.31688">
        <ele>-1000</ele>
        <time>2007-05-14T14:08:43Z</time>
      </trkpt>
      <trkpt lat="48.64155" lon="-2.31653">
        <ele>-1000</ele>
        <time>2007-05-14T14:08:43Z</time>
      </trkpt>
      <trkpt lat="48.6412" lon="-2.31594">
        <ele>-1000</ele>
        <time>2007-05-14T14:08:43Z</time>
      </trkpt>
      <trkpt lat="48.64094" lon="-2.31534">
        <ele>-1000</ele>
        <time>2007-05-14T14:08:43Z</time>
      </trkpt>
      <trkpt lat="48.64021" lon="-2.31639">
        <ele>-1000</ele>
        <time>2007-05-14T14:08:43Z</time>
      </trkpt>
      <trkpt lat="48.63944" lon="-2.3177">
        <ele>-1000</ele>
        <time>2007-05-14T14:08:43Z</time>
      </trkpt>
      <trkpt lat="48.63846" lon="-2.31845">
        <ele>-1000</ele>
        <time>2007-05-14T14:08:43Z</time>
      </trkpt>
      <trkpt lat="48.63781" lon="-2.31906">
        <ele>-1000</ele>
        <time>2007-05-14T14:08:43Z</time>
      </trkpt>
      <trkpt lat="48.63667" lon="-2.3192">
        <ele>-1000</ele>
        <time>2007-05-14T14:08:43Z</time>
      </trkpt>
      <trkpt lat="48.63591" lon="-2.31908">
        <ele>-1000</ele>
        <time>2007-05-14T14:08:43Z</time>
      </trkpt>
      <trkpt lat="48.63572" lon="-2.31933">
        <ele>-1000</ele>
        <time>2007-05-14T14:08:43Z</time>
      </trkpt>
      <trkpt lat="48.63559" lon="-2.31981">
        <ele>-1000</ele>
        <time>2007-05-14T14:08:43Z</time>
      </trkpt>
      <trkpt lat="48.63522" lon="-2.32021">
        <ele>-1000</ele>
        <time>2007-05-14T14:08:43Z</time>
      </trkpt>
      <trkpt lat="48.63403" lon="-2.32115">
        <ele>-1000</ele>
        <time>2007-05-14T14:08:43Z</time>
      </trkpt>
      <trkpt lat="48.63368" lon="-2.32113">
        <ele>-1000</ele>
        <time>2007-05-14T14:08:43Z</time>
      </trkpt>
      <trkpt lat="48.63334" lon="-2.32086">
        <ele>-1000</ele>
        <time>2007-05-14T14:08:43Z</time>
      </trkpt>
      <trkpt lat="48.63254" lon="-2.3209">
        <ele>-1000</ele>
        <time>2007-05-14T14:08:43Z</time>
      </trkpt>
      <trkpt lat="48.63196" lon="-2.32112">
        <ele>-1000</ele>
        <time>2007-05-14T14:08:43Z</time>
      </trkpt>
      <trkpt lat="48.63149" lon="-2.32257">
        <ele>-1000</ele>
        <time>2007-05-14T14:08:43Z</time>
      </trkpt>
      <trkpt lat="48.63176" lon="-2.32436">
        <ele>-1000</ele>
        <time>2007-05-14T14:08:43Z</time>
      </trkpt>
      <trkpt lat="48.63215" lon="-2.3254">
        <ele>-1000</ele>
        <time>2007-05-14T14:08:43Z</time>
      </trkpt>
      <trkpt lat="48.63249" lon="-2.3255">
        <ele>-1000</ele>
        <time>2007-05-14T14:08:43Z</time>
      </trkpt>
      <trkpt lat="48.63256" lon="-2.32587">
        <ele>-1000</ele>
        <time>2007-05-14T14:08:43Z</time>
      </trkpt>
      <trkpt lat="48.63282" lon="-2.32595">
        <ele>-1000</ele>
        <time>2007-05-14T14:08:43Z</time>
      </trkpt>
      <trkpt lat="48.63259" lon="-2.32659">
        <ele>-1000</ele>
        <time>2007-05-14T14:08:43Z</time>
      </trkpt>
      <trkpt lat="48.63195" lon="-2.32708">
        <ele>-1000</ele>
        <time>2007-05-14T14:08:43Z</time>
      </trkpt>
      <trkpt lat="48.632" lon="-2.32771">
        <ele>-1000</ele>
        <time>2007-05-14T14:08:43Z</time>
      </trkpt>
      <trkpt lat="48.63243" lon="-2.32921">
        <ele>-1000</ele>
        <time>2007-05-14T14:08:43Z</time>
      </trkpt>
      <trkpt lat="48.63258" lon="-2.32991">
        <ele>-1000</ele>
        <time>2007-05-14T14:08:43Z</time>
      </trkpt>
      <trkpt lat="48.63252" lon="-2.33053">
        <ele>-1000</ele>
        <time>2007-05-14T14:08:43Z</time>
      </trkpt>
      <trkpt lat="48.6323" lon="-2.33102">
        <ele>-1000</ele>
        <time>2007-05-14T14:08:43Z</time>
      </trkpt>
      <trkpt lat="48.63193" lon="-2.33142">
        <ele>-1000</ele>
        <time>2007-05-14T14:08:43Z</time>
      </trkpt>
      <trkpt lat="48.63199" lon="-2.33195">
        <ele>-1000</ele>
        <time>2007-05-14T14:08:43Z</time>
      </trkpt>
      <trkpt lat="48.63173" lon="-2.33225">
        <ele>-1000</ele>
        <time>2007-05-14T14:08:43Z</time>
      </trkpt>
      <trkpt lat="48.63157" lon="-2.33278">
        <ele>-1000</ele>
        <time>2007-05-14T14:08:43Z</time>
      </trkpt>
      <trkpt lat="48.63145" lon="-2.33358">
        <ele>-1000</ele>
        <time>2007-05-14T14:08:43Z</time>
      </trkpt>
      <trkpt lat="48.63117" lon="-2.33392">
        <ele>-1000</ele>
        <time>2007-05-14T14:08:43Z</time>
      </trkpt>
      <trkpt lat="48.63083" lon="-2.33391">
        <ele>-1000</ele>
        <time>2007-05-14T14:08:43Z</time>
      </trkpt>
      <trkpt lat="48.63053" lon="-2.33403">
        <ele>-1000</ele>
        <time>2007-05-14T14:08:43Z</time>
      </trkpt>
      <trkpt lat="48.62908" lon="-2.33509">
        <ele>-1000</ele>
        <time>2007-05-14T14:08:43Z</time>
      </trkpt>
      <trkpt lat="48.62853" lon="-2.33529">
        <ele>-1000</ele>
        <time>2007-05-14T14:08:43Z</time>
      </trkpt>
      <trkpt lat="48.62786" lon="-2.33534">
        <ele>-1000</ele>
        <time>2007-05-14T14:08:43Z</time>
      </trkpt>
      <trkpt lat="48.62718" lon="-2.33572">
        <ele>-1000</ele>
        <time>2007-05-14T14:08:43Z</time>
      </trkpt>
      <trkpt lat="48.6268" lon="-2.33606">
        <ele>-1000</ele>
        <time>2007-05-14T14:08:43Z</time>
      </trkpt>
      <trkpt lat="48.62637" lon="-2.33625">
        <ele>-1000</ele>
        <time>2007-05-14T14:08:43Z</time>
      </trkpt>
      <trkpt lat="48.62589" lon="-2.33674">
        <ele>-1000</ele>
        <time>2007-05-14T14:08:43Z</time>
      </trkpt>
      <trkpt lat="48.62601" lon="-2.33557">
        <ele>-1000</ele>
        <time>2007-05-14T14:08:43Z</time>
      </trkpt>
      <trkpt lat="48.62692" lon="-2.33414">
        <ele>-1000</ele>
        <time>2007-05-14T14:08:43Z</time>
      </trkpt>
      <trkpt lat="48.62669" lon="-2.33347">
        <ele>-1000</ele>
        <time>2007-05-14T14:08:43Z</time>
      </trkpt>
      <trkpt lat="48.62636" lon="-2.33338">
        <ele>-1000</ele>
        <time>2007-05-14T14:08:43Z</time>
      </trkpt>
      <trkpt lat="48.62628" lon="-2.33291">
        <ele>-1000</ele>
        <time>2007-05-14T14:08:43Z</time>
      </trkpt>
      <trkpt lat="48.62672" lon="-2.33165">
        <ele>-1000</ele>
        <time>2007-05-14T14:08:43Z</time>
      </trkpt>
      <trkpt lat="48.62655" lon="-2.33071">
        <ele>-1000</ele>
        <time>2007-05-14T14:08:43Z</time>
      </trkpt>
      <trkpt lat="48.62657" lon="-2.32997">
        <ele>-1000</ele>
        <time>2007-05-14T14:08:43Z</time>
      </trkpt>
      <trkpt lat="48.62696" lon="-2.32963">
        <ele>-1000</ele>
        <time>2007-05-14T14:08:43Z</time>
      </trkpt>
      <trkpt lat="48.62713" lon="-2.32887">
        <ele>-1000</ele>
        <time>2007-05-14T14:08:43Z</time>
      </trkpt>
      <trkpt lat="48.6271" lon="-2.32836">
        <ele>-1000</ele>
        <time>2007-05-14T14:08:43Z</time>
      </trkpt>
      <trkpt lat="48.62692" lon="-2.32789">
        <ele>-1000</ele>
        <time>2007-05-14T14:08:43Z</time>
      </trkpt>
      <trkpt lat="48.62585" lon="-2.32907">
        <ele>-1000</ele>
        <time>2007-05-14T14:08:43Z</time>
      </trkpt>
      <trkpt lat="48.62509" lon="-2.3302">
        <ele>-1000</ele>
        <time>2007-05-14T14:08:43Z</time>
      </trkpt>
      <trkpt lat="48.62322" lon="-2.33371">
        <ele>-1000</ele>
        <time>2007-05-14T14:08:43Z</time>
      </trkpt>
      <trkpt lat="48.6228" lon="-2.33446">
        <ele>-1000</ele>
        <time>2007-05-14T14:08:43Z</time>
      </trkpt>
      <trkpt lat="48.62201" lon="-2.33506">
        <ele>-1000</ele>
        <time>2007-05-14T14:08:43Z</time>
      </trkpt>
      <trkpt lat="48.6214" lon="-2.33589">
        <ele>-1000</ele>
        <time>2007-05-14T14:08:43Z</time>
      </trkpt>
      <trkpt lat="48.62098" lon="-2.33646">
        <ele>-1000</ele>
        <time>2007-05-14T14:08:43Z</time>
      </trkpt>
      <trkpt lat="48.62048" lon="-2.33772">
        <ele>-1000</ele>
        <time>2007-05-14T14:08:43Z</time>
      </trkpt>
      <trkpt lat="48.61996" lon="-2.3382">
        <ele>-1000</ele>
        <time>2007-05-14T14:08:43Z</time>
      </trkpt>
      <trkpt lat="48.61877" lon="-2.33675">
        <ele>-1000</ele>
        <time>2007-05-14T14:08:43Z</time>
      </trkpt>
      <trkpt lat="48.61821" lon="-2.33579">
        <ele>-1000</ele>
        <time>2007-05-14T14:08:43Z</time>
      </trkpt>
      <trkpt lat="48.61754" lon="-2.33519">
        <ele>-1000</ele>
        <time>2007-05-14T14:08:43Z</time>
      </trkpt>
      <trkpt lat="48.61666" lon="-2.33321">
        <ele>-1000</ele>
        <time>2007-05-14T14:08:43Z</time>
      </trkpt>
      <trkpt lat="48.61635" lon="-2.33189">
        <ele>-1000</ele>
        <time>2007-05-14T14:08:43Z</time>
      </trkpt>
      <trkpt lat="48.61626" lon="-2.33079">
        <ele>-1000</ele>
        <time>2007-05-14T14:08:43Z</time>
      </trkpt>
      <trkpt lat="48.61598" lon="-2.33086">
        <ele>-1000</ele>
        <time>2007-05-14T14:08:43Z</time>
      </trkpt>
      <trkpt lat="48.61577" lon="-2.33116">
        <ele>-1000</ele>
        <time>2007-05-14T14:08:43Z</time>
      </trkpt>
      <trkpt lat="48.61553" lon="-2.331">
        <ele>-1000</ele>
        <time>2007-05-14T14:08:43Z</time>
      </trkpt>
      <trkpt lat="48.61499" lon="-2.32932">
        <ele>-1000</ele>
        <time>2007-05-14T14:08:43Z</time>
      </trkpt>
      <trkpt lat="48.6151" lon="-2.32867">
        <ele>-1000</ele>
        <time>2007-05-14T14:08:43Z</time>
      </trkpt>
      <trkpt lat="48.61551" lon="-2.32848">
        <ele>-1000</ele>
        <time>2007-05-14T14:08:43Z</time>
      </trkpt>
      <trkpt lat="48.6156" lon="-2.32707">
        <ele>-1000</ele>
        <time>2007-05-14T14:08:43Z</time>
      </trkpt>
      <trkpt lat="48.6163" lon="-2.32458">
        <ele>-1000</ele>
        <time>2007-05-14T14:08:43Z</time>
      </trkpt>
      <trkpt lat="48.61655" lon="-2.32382">
        <ele>-1000</ele>
        <time>2007-05-14T14:08:43Z</time>
      </trkpt>
      <trkpt lat="48.61659" lon="-2.32315">
        <ele>-1000</ele>
        <time>2007-05-14T14:08:43Z</time>
      </trkpt>
      <trkpt lat="48.6161" lon="-2.32211">
        <ele>-1000</ele>
        <time>2007-05-14T14:08:43Z</time>
      </trkpt>
      <trkpt lat="48.61552" lon="-2.32194">
        <ele>-1000</ele>
        <time>2007-05-14T14:08:43Z</time>
      </trkpt>
      <trkpt lat="48.61447" lon="-2.32183">
        <ele>-1000</ele>
        <time>2007-05-14T14:08:43Z</time>
      </trkpt>
      <trkpt lat="48.61395" lon="-2.322">
        <ele>-1000</ele>
        <time>2007-05-14T14:08:43Z</time>
      </trkpt>
      <trkpt lat="48.61359" lon="-2.32228">
        <ele>-1000</ele>
        <time>2007-05-14T14:08:43Z</time>
      </trkpt>
      <trkpt lat="48.61332" lon="-2.32265">
        <ele>-1000</ele>
        <time>2007-05-14T14:08:43Z</time>
      </trkpt>
      <trkpt lat="48.6133" lon="-2.3222">
        <ele>-1000</ele>
        <time>2007-05-14T14:08:43Z</time>
      </trkpt>
      <trkpt lat="48.61277" lon="-2.32313">
        <ele>-1000</ele>
        <time>2007-05-14T14:08:43Z</time>
      </trkpt>
      <trkpt lat="48.61267" lon="-2.32363">
        <ele>-1000</ele>
        <time>2007-05-14T14:08:43Z</time>
      </trkpt>
      <trkpt lat="48.61272" lon="-2.32412">
        <ele>-1000</ele>
        <time>2007-05-14T14:08:43Z</time>
      </trkpt>
      <trkpt lat="48.61271" lon="-2.32476">
        <ele>-1000</ele>
        <time>2007-05-14T14:08:43Z</time>
      </trkpt>
      <trkpt lat="48.61243" lon="-2.32564">
        <ele>-1000</ele>
        <time>2007-05-14T14:08:43Z</time>
      </trkpt>
      <trkpt lat="48.61203" lon="-2.32641">
        <ele>-1000</ele>
        <time>2007-05-14T14:08:43Z</time>
      </trkpt>
      <trkpt lat="48.61155" lon="-2.32536">
        <ele>-1000</ele>
        <time>2007-05-14T14:08:43Z</time>
      </trkpt>
      <trkpt lat="48.61137" lon="-2.32519">
        <ele>-1000</ele>
        <time>2007-05-14T14:08:43Z</time>
      </trkpt>
      <trkpt lat="48.61086" lon="-2.32511">
        <ele>-1000</ele>
        <time>2007-05-14T14:08:43Z</time>
      </trkpt>
      <trkpt lat="48.611" lon="-2.32307">
        <ele>-1000</ele>
        <time>2007-05-14T14:08:43Z</time>
      </trkpt>
      <trkpt lat="48.60994" lon="-2.31642">
        <ele>-1000</ele>
        <time>2007-05-14T14:08:43Z</time>
      </trkpt>
      <trkpt lat="48.60923" lon="-2.31547">
        <ele>-1000</ele>
        <time>2007-05-14T14:08:43Z</time>
      </trkpt>
      <trkpt lat="48.60869" lon="-2.31493">
        <ele>-1000</ele>
        <time>2007-05-14T14:08:43Z</time>
      </trkpt>
      <trkpt lat="48.60725" lon="-2.31446">
        <ele>-1000</ele>
        <time>2007-05-14T14:08:43Z</time>
      </trkpt>
      <trkpt lat="48.60606" lon="-2.31369">
        <ele>-1000</ele>
        <time>2007-05-14T14:08:43Z</time>
      </trkpt>
      <trkpt lat="48.60518" lon="-2.31284">
        <ele>-1000</ele>
        <time>2007-05-14T14:08:43Z</time>
      </trkpt>
      <trkpt lat="48.6045" lon="-2.31172">
        <ele>-1000</ele>
        <time>2007-05-14T14:08:43Z</time>
      </trkpt>
      <trkpt lat="48.60356" lon="-2.31047">
        <ele>-1000</ele>
        <time>2007-05-14T14:08:43Z</time>
      </trkpt>
      <trkpt lat="48.60346" lon="-2.30993">
        <ele>-1000</ele>
        <time>2007-05-14T14:08:43Z</time>
      </trkpt>
      <trkpt lat="48.60347" lon="-2.3083">
        <ele>-1000</ele>
        <time>2007-05-14T14:08:43Z</time>
      </trkpt>
      <trkpt lat="48.60361" lon="-2.308">
        <ele>-1000</ele>
        <time>2007-05-14T14:08:43Z</time>
      </trkpt>
    </trkseg>
  </trk>
</gpx>